Location: Bégole
(43.1574°N, 0.3291°E)
Time: 00:44:11
(UTC+00:00)

deb Delta 89 - Pass Details

Date: 01 March 2024
Orbit: 714 x 2021 km, 97.5° (Epoch: 13 April)

Event Time Altitude Azimuth Distance (km) Brightness Sun altitude
Rises 03:59:06 0° 8° (N) 5,486 ? -28.8°
Reaches altitude 10° 04:02:45 10° 1° (N) 4,475 ? -28.2°
Maximum altitude 04:12:29 37° 302° (WNW) 2,703 ? -26.5°
Enters shadow 04:13:58 35° 286° (WNW) 2,715 ? -26.2°
